TimeGMT,TemperatureF,Dew PointF,Humidity,Sea Level PressureIn,VisibilityMPH,Wind Direction,Wind SpeedMPH,Gust SpeedMPH,PrecipitationIn,Events,Conditions,WindDirDegrees,DateUTC
12:20 AM,44.6,42.8,93,30.21,6.2,West,8.1,-,N/A,,Scattered Clouds,260,2012-11-07 00:20:00
12:50 AM,42.8,41.0,93,30.21,6.2,West,5.8,-,N/A,,Partly Cloudy,270,2012-11-07 00:50:00
1:20 AM,44.6,42.8,93,30.21,6.2,West,6.9,-,N/A,,Scattered Clouds,260,2012-11-07 01:20:00
1:50 AM,46.4,42.8,87,30.24,6.2,WSW,6.9,-,N/A,,Mostly Cloudy,250,2012-11-07 01:50:00
2:20 AM,46.4,42.8,87,30.24,6.2,WSW,8.1,-,N/A,,Scattered Clouds,250,2012-11-07 02:20:00
2:50 AM,43,41,92,30.25,11,West,6.9,,,,,260,2012-11-07 02:50:00
2:50 AM,44.6,41.0,87,30.24,6.2,West,6.9,-,N/A,,Partly Cloudy,260,2012-11-07 02:50:00
3:20 AM,42.8,41.0,93,30.24,-9999.0,WSW,5.8,-,N/A,,Clear,250,2012-11-07 03:20:00
3:50 AM,41.0,39.2,93,30.24,-9999.0,West,5.8,-,N/A,,Clear,270,2012-11-07 03:50:00
4:20 AM,42.8,41.0,93,30.24,-9999.0,West,5.8,-,N/A,,Clear,260,2012-11-07 04:20:00
4:50 AM,42.8,41.0,93,30.24,-9999.0,WSW,5.8,-,N/A,,Clear,240,2012-11-07 04:50:00
5:20 AM,41.0,39.2,93,30.27,-9999.0,WSW,5.8,-,N/A,,Clear,250,2012-11-07 05:20:00
5:50 AM,40,39,95,30.26,7,WSW,5.8,,,,,250,2012-11-07 05:50:00
5:50 AM,41.0,39.2,93,30.24,5.6,West,5.8,-,N/A,,Unknown,260,2012-11-07 05:50:00
6:20 AM,41.0,39.2,93,30.24,5.6,SSW,5.8,-,N/A,,Unknown,210,2012-11-07 06:20:00
6:50 AM,41.0,39.2,93,30.27,6.2,SSW,5.8,-,N/A,,Partly Cloudy,210,2012-11-07 06:50:00
7:20 AM,41.0,39.2,93,30.27,6.2,West,6.9,-,N/A,,Partly Cloudy,270,2012-11-07 07:20:00
7:50 AM,41.0,39.2,93,30.27,6.2,WSW,9.2,-,N/A,,Partly Cloudy,250,2012-11-07 07:50:00
8:20 AM,41.0,41.0,100,30.30,6.2,WSW,8.1,-,N/A,,Mostly Cloudy,240,2012-11-07 08:20:00
8:50 AM,44,42,89,30.30,8,West,9.2,,,,Partly Cloudy,260,2012-11-07 08:50:00
8:50 AM,44.6,42.8,93,30.30,6.2,West,10.4,-,N/A,,Scattered Clouds,270,2012-11-07 08:50:00
9:20 AM,44.6,42.8,93,30.30,6.2,WSW,9.2,-,N/A,,Partly Cloudy,250,2012-11-07 09:20:00
9:50 AM,48.2,42.8,82,30.30,6.2,West,10.4,-,N/A,,Partly Cloudy,260,2012-11-07 09:50:00
10:20 AM,48.2,42.8,82,30.30,6.2,West,12.7,-,N/A,,Partly Cloudy,270,2012-11-07 10:20:00
10:50 AM,48.2,42.8,82,30.30,6.2,West,13.8,-,N/A,,Partly Cloudy,260,2012-11-07 10:50:00
11:20 AM,50.0,42.8,76,30.30,6.2,WSW,13.8,-,N/A,,Scattered Clouds,250,2012-11-07 11:20:00
11:50 AM,49,42,70,30.30,12,WSW,13.8,,,,Mostly Cloudy,240,2012-11-07 11:50:00
11:50 AM,48.2,42.8,82,30.30,6.2,WSW,15.0,-,N/A,,Mostly Cloudy,250,2012-11-07 11:50:00
12:20 PM,48.2,42.8,82,30.27,6.2,WSW,12.7,-,N/A,,Mostly Cloudy,250,2012-11-07 12:20:00
12:50 PM,50.0,42.8,76,30.27,6.2,WSW,12.7,-,N/A,,Scattered Clouds,250,2012-11-07 12:50:00
1:20 PM,48.2,41.0,76,30.27,6.2,West,13.8,-,N/A,,Scattered Clouds,260,2012-11-07 13:20:00
1:50 PM,50.0,42.8,76,30.27,6.2,West,13.8,-,N/A,,Scattered Clouds,260,2012-11-07 13:50:00
2:20 PM,50.0,42.8,76,30.24,6.2,West,13.8,-,N/A,,Mostly Cloudy,260,2012-11-07 14:20:00
2:50 PM,50,42,67,30.26,16,WSW,15.0,,,,Mostly Cloudy,250,2012-11-07 14:50:00
2:50 PM,50.0,42.8,76,30.24,6.2,WSW,17.3,-,N/A,,Mostly Cloudy,250,2012-11-07 14:50:00
3:20 PM,50.0,42.8,76,30.24,6.2,West,16.1,-,N/A,,Mostly Cloudy,260,2012-11-07 15:20:00
3:50 PM,50.0,42.8,76,30.24,6.2,West,18.4,-,N/A,,Mostly Cloudy,270,2012-11-07 15:50:00
4:20 PM,50.0,42.8,76,30.24,6.2,West,15.0,-,N/A,,Mostly Cloudy,270,2012-11-07 16:20:00
4:50 PM,50.0,41.0,71,30.24,6.2,West,17.3,-,N/A,,Mostly Cloudy,260,2012-11-07 16:50:00
5:20 PM,50.0,41.0,71,30.24,6.2,WSW,13.8,-,N/A,,Partly Cloudy,250,2012-11-07 17:20:00
5:50 PM,48,42,71,30.24,17,SW,12.7,,,,Mostly Cloudy,230,2012-11-07 17:50:00
5:50 PM,48.2,41.0,76,30.24,6.2,WSW,12.7,-,N/A,,Partly Cloudy,240,2012-11-07 17:50:00
6:20 PM,48.2,41.0,76,30.24,6.2,SW,10.4,-,N/A,,Partly Cloudy,230,2012-11-07 18:20:00
6:50 PM,48.2,41.0,76,30.24,6.2,SW,13.8,-,N/A,,Scattered Clouds,230,2012-11-07 18:50:00
7:20 PM,46.4,41.0,81,30.24,6.2,SW,12.7,-,N/A,,Partly Cloudy,230,2012-11-07 19:20:00
7:50 PM,46.4,41.0,81,30.24,6.2,SW,12.7,-,N/A,,Mostly Cloudy,230,2012-11-07 19:50:00
8:20 PM,48.2,41.0,76,30.24,6.2,SW,10.4,-,N/A,,Mostly Cloudy,220,2012-11-07 20:20:00
8:50 PM,49,42,70,30.23,15,SW,13.8,,,,Overcast,230,2012-11-07 20:50:00
8:50 PM,48.2,42.8,82,30.21,6.2,SW,13.8,-,N/A,,Mostly Cloudy,230,2012-11-07 20:50:00
9:20 PM,50.0,42.8,76,30.21,6.2,WSW,12.7,-,N/A,,Mostly Cloudy,240,2012-11-07 21:20:00
9:50 PM,50.0,42.8,76,30.21,6.2,WSW,12.7,24.2,N/A,,Mostly Cloudy,240,2012-11-07 21:50:00
10:20 PM,48.2,42.8,82,30.18,6.2,SW,12.7,-,N/A,,Mostly Cloudy,230,2012-11-07 22:20:00
10:50 PM,48.2,42.8,82,30.18,6.2,SW,12.7,-,N/A,,Scattered Clouds,230,2012-11-07 22:50:00
11:20 PM,48.2,42.8,82,30.18,6.2,SW,12.7,-,N/A,,Partly Cloudy,230,2012-11-07 23:20:00
11:50 PM,47,42,79,30.19,19,SW,9.2,,,,Partly Cloudy,230,2012-11-07 23:50:00
11:50 PM,48.2,42.8,82,30.18,6.2,WSW,10.4,-,N/A,,Partly Cloudy,240,2012-11-07 23:50:00